Location: Bovenkerk
(52.2915°N, 4.8336°E)
Time: 23:24:29
(UTC+00:00)

Cosmos 921 Rocket - Pass Details

Date: 09 April 2020
Orbit: 572 x 632 km, 75.8° (Epoch: 23 May)

Event Time Altitude Azimuth Distance (km) Brightness Sun altitude
Rises 18:57:51 0° 340° (NNW) 2,794 7.1 -5.0°
Reaches altitude 10° 19:00:06 10° 345° (NNW) 1,891 6.1 -5.3°
Maximum altitude 19:04:14 56° 64° (ENE) 692 3.1 -5.9°
Drops below altitude 10° 19:08:21 10° 143° (SE) 1,886 5.0 -6.5°
Enters shadow 19:09:44 - 146° (SSE) 2,439 5.6 -6.7°
